This demonstration page uses our WeatherBlox Daily Observations layout. Learn more.

Left ArrowRight Arrow

Hourly Observations for January 25, 2022

Temp ( °F °C ) Dew Point ( °F °C ) Humidity (%) Winds ( mph kmh ) Pressure ( in mb ) Visibility ( mi km ) Precip ( " mm )
12:54 am 00:54 Clear 8 -13.3 0 -17.8 69 69 NNE 8 13 30.30 1026 10 16 0.00 0.00
1:54 am 01:54 Clear 8 -13.3 -1 -18.3 66 66 NNE 7 11 30.32 1027 10 16 0.00 0.00
2:54 am 02:54 Clear 7 -13.9 -1 -18.3 70 70 N 8 13 30.35 1028 10 16 0.00 0.00
3:54 am 03:54 Clear 5 -15 -1 -18.3 76 76 N 9 15 30.35 1028 10 16 0.00 0.00
4:54 am 04:54 Clear 5 -15 -2 -18.9 72 72 N 3 6 30.38 1029 10 16 0.00 0.00
5:54 am 05:54 Clear 6 -14.4 -2 -18.9 69 69 Calm 30.42 1030 10 16 0.00 0.00
6:54 am 06:54 Clear 3 -16.1 -3 -19.4 76 76 N 5 7 30.45 1031 10 16 0.00 0.00
7:54 am 07:54 Mostly Sunny 4 -15.6 -3 -19.4 73 73 NNW 5 7 30.47 1032 10 16 0.00 0.00
8:54 am 08:54 Mostly Sunny 8 -13.3 0 -17.8 69 69 N 7 11 30.49 1032 10 16 0.00 0.00
9:54 am 09:54 Sunny 12 -11.1 2 -16.7 64 64 N 9 15 30.50 1033 10 16 0.00 0.00
10:54 am 10:54 Cloudy 16 -8.9 1 -17.2 51 51 N 10 17 30.51 1033 10 16 0.00 0.00
11:54 am 11:54 Cloudy 18 -7.8 1 -17.2 47 47 NNW 10 17 30.51 1033 10 16 0.00 0.00
12:54 pm 12:54 Cloudy 20 -6.7 1 -17.2 43 43 NNW 10 17 30.51 1033 10 16 0.00 0.00
1:54 pm 13:54 Partly Cloudy 21 -6.1 2 -16.7 43 43 N 10 17 30.50 1033 10 16 0.00 0.00
2:54 pm 14:54 Cloudy 22 -5.6 2 -16.7 42 42 NNW 13 20 30.51 1033 10 16 0.00 0.00
3:54 pm 15:54 Cloudy 21 -6.1 2 -16.7 43 43 N 8 13 30.53 1034 10 16 0.00 0.00
4:54 pm 16:54 Cloudy 20 -6.7 2 -16.7 45 45 NW 3 6 30.53 1034 10 16 0.00 0.00
5:54 pm 17:54 Clear 19 -7.2 2 -16.7 47 47 WSW 3 6 30.54 1034 10 16 0.00 0.00
6:54 pm 18:54 Clear 15 -9.4 1 -17.2 53 53 NNE 5 7 30.57 1035 10 16 0.00 0.00
7:54 pm 19:54 Clear 16 -8.9 1 -17.2 51 51 NNW 3 6 30.59 1036 10 16 0.00 0.00
8:54 pm 20:54 Clear 10 -12.2 -1 -18.3 61 61 N 5 7 30.60 1036 10 16 0.00 0.00
9:54 pm 21:54 Clear 8 -13.3 -3 -19.4 60 60 Calm 30.60 1036 10 16 0.00 0.00
10:54 pm 22:54 Clear 6 -14.4 -2 -18.9 69 69 Calm 30.59 1036 10 16 0.00 0.00
11:54 pm 23:54 Clear 1 -17.2 -6 -21.1 72 72 NNE 3 6 30.58 1036 10 16 0.00 0.00

Powered by AerisWeather